Location: Newark
(44.6768°N, 22.5302°E)
Time: 01:33:12
(UTC+00:00)

CUTE 1.7 + AOD 2 - Pass Details

Date: 10 July 2022
Orbit: 589 x 608 km, 97.7° (Epoch: 17 August)

Event Time Altitude Azimuth Distance (km) Brightness Sun altitude
Rises 02:06:57 0° 17° (NNE) 2,842 ? -7.5°
Reaches altitude 10° 02:09:10 10° 22° (NNE) 1,933 ? -7.2°
Maximum altitude 02:13:17 54° 100° (E) 723 ? -6.7°
Drops below altitude 10° 02:17:21 10° 178° (S) 1,911 ? -6.1°
Sets 02:19:32 0° 183° (S) 2,807 ? -5.8°
